#timestamp,LO_Frequency,Hit,StdDev 
1655316015.5,286047001.1,N
1655316035.4,286046998.5,N
1655316055.2,286046998.8,N
1655316075.0,286046999.2,N
1655316075.9,286046999.2,N
1655316095.8,286046998.7,N
1655316115.6,286046998.9,N
1655316135.5,286046999.6,N
1655316155.3,286046996.8,Y
1655316175.1,286046999.4,P
1655316195.9,286046999.1,P
1655316215.7,286046999.3,P
1655316235.5,286046997.3,Y
1655316255.4,286046996.9,P
1655316275.2,286046999.1,N
1655316295.1,286046999.3,N
1655316296.0,286046999.3,N
1655316315.8,286046998.6,N
1655316335.6,286046998.9,N
1655316355.5,286046999.6,N
1655316375.3,286046999.3,N
1655316395.1,286046998.4,N
1655316415.9,286046998.6,N
1655316435.7,286047001.1,N
1655316455.6,286046998.5,N
1655316475.4,286047000.5,N
1655316495.2,286047000.4,N
1655316515.1,286047000.6,N
1655316516.0,286047000.6,N
1655316535.8,286047001.0,N
1655316555.6,286047000.5,N
1655316575.5,286047001.0,N
1655316595.3,286047000.9,N
1655316615.2,286047000.6,N
1655316635.9,286047001.0,N
1655316655.7,286046998.6,N
1655316675.6,286046998.8,N
1655316695.4,286046999.4,N
1655316715.2,286046998.3,N
1655316735.1,286046998.8,N
1655316736.0,286046998.8,N
1655316755.8,286046998.8,N
1655316775.7,286046998.8,N
1655316795.5,286046998.2,N
1655316815.3,286047001.2,N
1655316835.2,286046998.7,N
1655316855.0,286046998.6,N
1655316855.9,286046998.6,N
1655316875.7,286046998.7,N
1655316895.6,286046998.5,N
1655316915.4,286046999.4,N
1655316935.3,286046996.7,Y
1655316955.1,286046999.5,P
1655316956.0,286046999.5,P
1655316975.8,286046999.0,P
1655316995.7,286047001.1,Y
1655317015.5,286047000.1,P
1655317035.4,286047000.7,N
1655317055.2,286047001.1,N
1655317075.0,286046998.3,N
1655317075.9,286046998.3,N
1655317095.8,286046998.3,N
1655317115.6,286046998.5,N
1655317135.4,286047000.7,N
1655317155.3,286046999.1,N
1655317175.1,286046998.4,N
1655317195.9,286046998.3,N
1655317215.7,286047001.0,N
1655317235.5,286047000.8,N
1655317255.4,286046999.5,N
1655317275.2,286046996.6,Y
1655317295.0,286046996.5,P
1655317295.9,286046996.5,N
1655317315.8,286046998.7,N
1655317335.6,286046999.0,N
1655317355.5,286047001.1,N
1655317375.3,286046998.2,N
1655317395.1,286047000.4,N
1655317415.9,286047001.0,N
1655317435.7,286047001.2,N
1655317455.6,286046998.6,N
1655317475.4,286046998.8,N
1655317495.2,286046996.5,N
1655317515.1,286046997.0,N
1655317516.0,286046997.0,N
1655317535.8,286046999.6,N
1655317555.6,286046997.3,N
1655317575.5,286046998.4,N
1655317595.3,286046998.6,N
1655317615.2,286047000.7,N
1655317635.9,286047000.8,N
1655317655.7,286047000.3,N
1655317675.6,286047000.3,N
1655317695.4,286047001.0,N
1655317715.2,286047001.0,N
1655317735.1,286047000.0,N
1655317736.0,286047000.0,N
1655317755.8,286047001.1,N
1655317775.7,286047001.1,N
1655317795.5,286047000.9,N
1655317815.3,286047000.9,N
1655317835.2,286047000.3,N
1655317855.9,286047000.6,N
1655317875.7,286047000.5,N
1655317895.6,286046998.6,N
1655317915.4,286046999.2,N
1655317935.3,286046997.1,N
1655317955.1,286046997.4,N
1655317956.0,286046997.4,N
1655317975.8,286046999.1,N
1655317995.7,286046998.7,N
1655318015.5,286046998.9,N
1655318035.3,286046998.8,N
1655318055.2,286046999.2,N
1655318075.0,286046998.7,N
1655318075.9,286046998.7,N
1655318095.8,286046999.1,N
1655318115.6,286046996.7,N
1655318135.4,286046999.3,N
1655318155.3,286046999.3,N
1655318175.1,286047001.1,N
1655318195.8,286046999.1,N
1655318215.7,286046996.6,N
1655318235.5,286046998.3,N
1655318255.4,286046998.3,N
1655318275.2,286046998.2,N
1655318295.1,286046998.4,N
1655318296.0,286046998.4,N
1655318315.8,286046996.5,N
1655318335.6,286046996.8,N
1655318355.5,286046997.0,N
1655318375.3,286046997.0,N
1655318395.1,286046999.1,N
1655318415.9,286046998.9,N
1655318435.7,286046999.1,N
1655318455.6,286046999.3,N
1655318475.4,286047000.7,N
1655318495.2,286047000.6,N
1655318515.1,286047000.5,N
1655318516.0,286047000.5,N
1655318535.8,286047000.1,N
1655318555.6,286047002.8,N
1655318575.5,286046999.8,N
1655318595.3,286046999.7,N
1655318615.2,286047000.9,N
1655318635.9,286047001.1,N
1655318655.7,286046998.7,N
1655318675.6,286046996.5,N
1655318695.4,286046999.2,N
1655318715.2,286046996.8,N
1655318735.1,286046996.9,N
1655318736.0,286046996.9,N
1655318755.8,286046998.9,N
1655318775.7,286046999.5,N
1655318795.5,286046997.0,N
1655318815.3,286046996.8,N
1655318835.2,286046997.4,N
1655318855.0,286046997.3,N
1655318855.9,286046997.3,N
1655318875.8,286046997.6,N
1655318895.6,286046995.2,N
1655318915.5,286046996.4,N
1655318935.3,286046995.4,N
1655318955.1,286046995.8,N
1655318975.9,286046995.8,N
1655318995.7,286046994.9,N
1655319015.5,286046997.4,N
1655319035.4,286046996.6,N
1655319055.2,286046997.0,N
1655319075.1,286046997.0,N
1655319076.0,286046997.0,N
1655319095.8,286046997.3,N
1655319115.7,286046997.6,N
1655319135.5,286046999.1,N
1655319155.3,286046998.4,N
1655319175.2,286047001.2,N
1655319195.0,286046998.4,N
1655319195.9,286046998.4,N
1655319215.8,286046997.0,N
1655319235.6,286046996.9,N
1655319255.4,286046996.5,N
1655319275.3,286046999.3,N
1655319295.1,286046998.8,N
1655319315.9,286046998.6,N
1655319335.7,286047000.4,N
1655319355.5,286047000.6,N
1655319375.4,286047000.9,N
1655319395.2,286047000.7,N
1655319415.0,286046998.2,N
1655319416.0,286046998.2,N
1655319435.8,286046998.1,N
1655319455.6,286047000.3,N
1655319475.5,286047001.0,N
1655319495.3,286047001.0,N
1655319515.1,286047000.9,N
1655319535.9,286047000.5,N
1655319555.7,286047000.4,N
1655319575.6,286047001.0,N
1655319595.4,286047000.2,N
